User: anonymous   Login
Location: Champaign/Urbana Astronomical Society Observatory
(40.0333°N, 88.2833°W)
Time: 07:51:09
(UTC-05:00)
Language:

AO-7 - Orbit

View from above orbital plane
View from above orbital plane
View from above satellite
View from above satellite

Ground track
Ground track

The orbit data is extracted from the following two-line orbital elements,

1  7530U 74089B   19140.50939347 -.00000040 +00000-0 +32413-4 0  9990
2  7530 101.7416 108.4725 0012538 044.7327 068.0702 12.53638152036626
Epoch (UTC): 20 May 2019 12:13:31
Eccentricity: 0.0012538
inclination: 101.7416°
perigee height: 1439 km
apogee height: 1459 km
right ascension of ascending node: 108.4725°
argument of perigee: 44.7327°
revolutions per day: 12.53638152
mean anomaly at epoch: 68.0702°
orbit number at epoch: 3662

The dashed part of the orbit path shows where the satellite is in the earth's shadow,  

DLR